When you browse on this site, cookies collect data to enhance your experience and personalize the content and advertising you see.
Visit our Privacy Policy to learn more. By continuing to use the site, you agree to this use of cookies and data.
  • In Hungary
  • List of Countries
  • For 7 days
  • Water Temperature
  • Weather Map
  • News
  • Weather Widgets
  • user-avatar
    Login

    Hourly Weather Sarkyrama

    Today, 12 December, Thursday

    Time Temperature Precipitation Wind Pressure Humidity
    00:00 +7°C° 0 mm 1 mps 734 mmHg 77%
    01:00 +7°C° 0 mm 1 mps 734 mmHg 78%
    02:00 +6°C° 0 mm 1 mps 734 mmHg 78%
    03:00 +6°C° 0 mm 1 mps 734 mmHg 79%
    04:00 +6°C° 0 mm 1 mps 734 mmHg 79%
    05:00 +6°C° 0 mm 1 mps 734 mmHg 77%
    06:00 +7°C° 0.2 mm 1 mps 734 mmHg 79%
    07:00 +6°C° 0.2 mm 2 mps 734 mmHg 81%
    08:00 +6°C° 0.2 mm 2 mps 734 mmHg 82%
    09:00 +6°C° 0.6 mm 2 mps 734 mmHg 82%
    10:00 +7°C° 0.6 mm 3 mps 734 mmHg 81%
    11:00 +8°C° 0 mm 3 mps 734 mmHg 80%
    12:00 +9°C° 0 mm 3 mps 734 mmHg 75%
    13:00 +10°C° 0 mm 3 mps 734 mmHg 70%
    14:00 +11°C° 0 mm 3 mps 733 mmHg 65%
    15:00 +10°C° 0.2 mm 3 mps 733 mmHg 69%
    16:00 +9°C° 0.2 mm 3 mps 733 mmHg 74%
    17:00 +9°C° 0.2 mm 2 mps 733 mmHg 79%
    18:00 +8°C° 0.1 mm 3 mps 734 mmHg 78%
    19:00 +8°C° 0.1 mm 3 mps 734 mmHg 78%
    20:00 +6°C° 0.1 mm 4 mps 734 mmHg 78%
    21:00 +7°C° 0.1 mm 3 mps 734 mmHg 81%
    22:00 +5°C° 0.1 mm 3 mps 734 mmHg 83%
    23:00 +5°C° 0.1 mm 3 mps 734 mmHg 86%

    Tomorrow, 13 December, Friday

    Time Temperature Precipitation Wind Pressure Humidity
    00:00 +5°C° 0.3 mm 3 mps 734 mmHg 85%
    01:00 +5°C° 0.3 mm 4 mps 734 mmHg 84%
    02:00 +5°C° 0.3 mm 5 mps 734 mmHg 83%
    03:00 +4°C° 0.1 mm 6 mps 734 mmHg 82%
    04:00 +3°C° 0.1 mm 6 mps 734 mmHg 82%
    05:00 +3°C° 0.1 mm 6 mps 734 mmHg 81%
    06:00 +3°C° 0 mm 6 mps 734 mmHg 80%
    07:00 +3°C° 0 mm 6 mps 734 mmHg 80%
    08:00 +3°C° 0 mm 5 mps 734 mmHg 80%
    09:00 +3°C° 0 mm 6 mps 734 mmHg 77%
    10:00 +3°C° 0 mm 7 mps 734 mmHg 74%
    11:00 +4°C° 0 mm 8 mps 734 mmHg 71%
    12:00 +4°C° 0 mm 8 mps 733 mmHg 70%
    13:00 +4°C° 0 mm 8 mps 733 mmHg 68%
    14:00 +4°C° 0 mm 8 mps 732 mmHg 67%
    15:00 +4°C° 0.2 mm 7 mps 732 mmHg 70%
    16:00 +4°C° 0.2 mm 7 mps 732 mmHg 74%
    17:00 +3°C° 0.2 mm 7 mps 732 mmHg 77%
    18:00 +2°C° 1.4 mm 7 mps 733 mmHg 83%
    19:00 0°C° 1.4 mm 7 mps 733 mmHg 89%
    20:00 -1°C° 1.4 mm 7 mps 733 mmHg 95%
    21:00 -1°C° 1.7 mm 6 mps 733 mmHg 94%
    22:00 -1°C° 1.7 mm 5 mps 734 mmHg 93%
    23:00 -2°C° 1.7 mm 4 mps 734 mmHg 92%

    Day after tomorrow, 14 December, Saturday

    Time Temperature Precipitation Wind Pressure Humidity
    00:00 -1°C° 0.5 mm 3 mps 734 mmHg 92%
    01:00 -2°C° 0.5 mm 2 mps 734 mmHg 91%
    02:00 -2°C° 0.5 mm 2 mps 735 mmHg 90%
    03:00 -2°C° 0.1 mm 2 mps 735 mmHg 90%
    04:00 -3°C° 0.1 mm 2 mps 735 mmHg 89%
    05:00 -3°C° 0.1 mm 2 mps 736 mmHg 88%
    06:00 -1°C° 0.1 mm 1 mps 736 mmHg 89%
    07:00 -1°C° 0.1 mm 1 mps 737 mmHg 90%
    08:00 -1°C° 0.1 mm 1 mps 738 mmHg 90%
    09:00 -1°C° 0.2 mm 1 mps 738 mmHg 90%
    10:00 -2°C° 0.2 mm 2 mps 739 mmHg 89%
    11:00 -2°C° 0.2 mm 2 mps 739 mmHg 89%
    12:00 -1°C° 0 mm 2 mps 739 mmHg 87%
    13:00 -1°C° 0 mm 2 mps 740 mmHg 85%
    14:00 -1°C° 0 mm 2 mps 740 mmHg 83%
    15:00 -1°C° 0 mm 2 mps 740 mmHg 83%
    16:00 -1°C° 0 mm 2 mps 741 mmHg 83%
    17:00 +1°C° 0 mm 1 mps 741 mmHg 83%
    18:00 +1°C° 0 mm 1 mps 742 mmHg 84%
    19:00 0°C° 0 mm 1 mps 742 mmHg 84%
    20:00 0°C° 0 mm 1 mps 743 mmHg 85%
    21:00 0°C° 0 mm 1 mps 743 mmHg 86%
    22:00 -1°C° 0 mm 1 mps 743 mmHg 88%
    23:00 -1°C° 0 mm 1 mps 743 mmHg 89%

    15 December, Sunday

    Time Temperature Precipitation Wind Pressure Humidity
    00:00 -2°C° 0 mm 1 mps 743 mmHg 89%
    01:00 -2°C° 0 mm 1 mps 743 mmHg 89%
    02:00 -2°C° 0 mm 1 mps 743 mmHg 89%
    03:00 -2°C° 0 mm 1 mps 743 mmHg 89%
    04:00 -2°C° 0 mm 1 mps 743 mmHg 89%
    05:00 -2°C° 0 mm 1 mps 743 mmHg 89%
    06:00 -3°C° 0 mm 1 mps 743 mmHg 88%
    07:00 -3°C° 0 mm 1 mps 744 mmHg 87%
    08:00 -3°C° 0 mm 1 mps 744 mmHg 86%
    09:00 -2°C° 0 mm 1 mps 744 mmHg 83%
    10:00 -1°C° 0 mm 1 mps 744 mmHg 79%
    11:00 0°C° 0 mm 1 mps 744 mmHg 75%
    12:00 +1°C° 0 mm 1 mps 744 mmHg 74%
    13:00 +1°C° 0 mm 2 mps 744 mmHg 74%
    14:00 +1°C° 0 mm 2 mps 743 mmHg 73%
    15:00 -1°C° 0 mm 2 mps 743 mmHg 76%
    16:00 -1°C° 0 mm 2 mps 743 mmHg 78%
    17:00 -2°C° 0 mm 3 mps 743 mmHg 81%
    18:00 -2°C° 0 mm 3 mps 744 mmHg 80%
    19:00 -4°C° 0 mm 3 mps 744 mmHg 79%
    20:00 -4°C° 0 mm 3 mps 744 mmHg 79%
    21:00 -4°C° 0 mm 3 mps 744 mmHg 79%
    22:00 -4°C° 0 mm 3 mps 744 mmHg 79%
    23:00 -5°C° 0 mm 3 mps 744 mmHg 79%

    16 December, Monday

    Time Temperature Precipitation Wind Pressure Humidity
    00:00 -5°C° 0 mm 3 mps 744 mmHg 78%
    01:00 -5°C° 0 mm 3 mps 744 mmHg 77%
    02:00 -5°C° 0 mm 3 mps 744 mmHg 76%
    03:00 -5°C° 0 mm 3 mps 744 mmHg 75%
    04:00 -5°C° 0 mm 3 mps 744 mmHg 74%
    05:00 -5°C° 0 mm 3 mps 744 mmHg 73%
    06:00 -5°C° 0 mm 3 mps 744 mmHg 73%
    07:00 -5°C° 0 mm 3 mps 744 mmHg 73%
    08:00 -5°C° 0 mm 3 mps 744 mmHg 73%
    09:00 -4°C° 0 mm 3 mps 744 mmHg 71%
    10:00 -1°C° 0 mm 3 mps 744 mmHg 68%
    11:00 0°C° 0 mm 3 mps 744 mmHg 65%
    12:00 +1°C° 0 mm 3 mps 744 mmHg 65%
    13:00 +1°C° 0 mm 3 mps 744 mmHg 65%
    14:00 +2°C° 0 mm 3 mps 743 mmHg 65%
    15:00 0°C° 0 mm 3 mps 743 mmHg 67%
    16:00 -1°C° 0 mm 3 mps 743 mmHg 70%
    17:00 -2°C° 0 mm 3 mps 743 mmHg 72%
    18:00 -4°C° 0 mm 3 mps 743 mmHg 71%
    19:00 -4°C° 0 mm 3 mps 743 mmHg 69%
    20:00 -4°C° 0 mm 3 mps 743 mmHg 67%
    21:00 -4°C° 0 mm 3 mps 743 mmHg 65%
    22:00 -3°C° 0 mm 2 mps 743 mmHg 64%
    23:00 -3°C° 0 mm 2 mps 743 mmHg 62%

    17 December, Tuesday

    Time Temperature Precipitation Wind Pressure Humidity
    00:00 -3°C° 0 mm 2 mps 743 mmHg 61%
    01:00 -3°C° 0 mm 2 mps 743 mmHg 60%
    02:00 -3°C° 0 mm 2 mps 743 mmHg 59%
    03:00 -3°C° 0 mm 2 mps 743 mmHg 58%
    04:00 -3°C° 0 mm 2 mps 743 mmHg 56%
    05:00 -3°C° 0 mm 2 mps 743 mmHg 55%
    06:00 -3°C° 0 mm 2 mps 743 mmHg 54%
    07:00 -3°C° 0 mm 2 mps 744 mmHg 52%
    08:00 -3°C° 0 mm 2 mps 744 mmHg 51%
    09:00 -2°C° 0 mm 2 mps 744 mmHg 50%
    10:00 +2°C° 0 mm 1 mps 744 mmHg 48%
    11:00 +3°C° 0 mm 1 mps 745 mmHg 46%
    12:00 +4°C° 0 mm 1 mps 744 mmHg 46%
    13:00 +4°C° 0 mm 1 mps 744 mmHg 46%
    14:00 +5°C° 0 mm 1 mps 744 mmHg 46%
    15:00 +4°C° 0 mm 1 mps 744 mmHg 47%
    16:00 +3°C° 0 mm 1 mps 744 mmHg 48%
    17:00 -1°C° 0 mm 2 mps 744 mmHg 49%
    18:00 -1°C° 0 mm 2 mps 744 mmHg 48%
    19:00 -1°C° 0 mm 2 mps 743 mmHg 46%
    20:00 -1°C° 0 mm 2 mps 743 mmHg 45%
    21:00 0°C° 0 mm 1 mps 743 mmHg 44%
    22:00 0°C° 0 mm 1 mps 743 mmHg 43%
    23:00 0°C° 0 mm 1 mps 743 mmHg 41%
    Show more